Time,TemperatureF,DewpointF,PressureIn,WindDirection,WindDirectionDegrees,WindSpeedMPH,WindSpeedGustMPH,Humidity,HourlyPrecipIn,Conditions,Clouds,dailyrainin,SolarRadiationWatts/m^2,SoftwareType,DateUTC
2013-11-15 00:00:00,38.0,27.3,30.00,SSW,198,3.0,3.0,65,0.00,,,0.00,0,Wunderground v.1.15,2013-11-15 06:00:00,
2013-11-15 00:05:00,37.6,26.9,30.00,SSW,198,3.0,4.0,65,0.00,,,0.00,0,Wunderground v.1.15,2013-11-15 06:05:00,
2013-11-15 00:10:00,37.2,26.9,30.00,SSW,198,4.0,5.0,66,0.00,,,0.00,0,Wunderground v.1.15,2013-11-15 06:10:00,
2013-11-15 00:15:00,36.9,27.0,30.00,SSW,198,4.0,5.0,67,0.00,,,0.00,0,Wunderground v.1.15,2013-11-15 06:15:00,
2013-11-15 00:20:00,36.8,26.9,30.00,SSW,198,4.0,4.0,67,0.00,,,0.00,0,Wunderground v.1.15,2013-11-15 06:20:00,
2013-11-15 00:30:00,36.5,26.2,30.00,SSW,198,4.0,5.0,66,0.00,,,0.00,0,Wunderground v.1.15,2013-11-15 06:30:00,
2013-11-15 00:35:00,36.5,25.8,30.00,SSW,198,5.0,5.0,65,0.00,,,0.00,0,Wunderground v.1.15,2013-11-15 06:35:00,
2013-11-15 00:40:00,36.6,26.3,30.00,SSW,198,4.0,4.0,66,0.00,,,0.00,0,Wunderground v.1.15,2013-11-15 06:40:00,
2013-11-15 00:45:00,36.3,26.4,30.00,SSW,198,3.0,4.0,67,0.00,,,0.00,0,Wunderground v.1.15,2013-11-15 06:45:00,
2013-11-15 00:50:00,35.8,26.3,30.00,SSW,198,2.0,4.0,68,0.00,,,0.00,0,Wunderground v.1.15,2013-11-15 06:50:00,
2013-11-15 00:55:00,35.4,25.9,30.00,SSW,198,3.0,4.0,68,0.00,,,0.00,0,Wunderground v.1.15,2013-11-15 06:55:00,
2013-11-15 01:05:00,35.0,26.2,29.99,SSW,198,2.0,3.0,70,0.00,,,0.00,0,Wunderground v.1.15,2013-11-15 07:05:00,
2013-11-15 01:10:00,34.7,25.9,29.99,SSW,198,2.0,2.0,70,0.00,,,0.00,0,Wunderground v.1.15,2013-11-15 07:10:00,
2013-11-15 01:15:00,34.4,25.6,29.99,SSW,198,2.0,3.0,70,0.00,,,0.00,0,Wunderground v.1.15,2013-11-15 07:15:00,
2013-11-15 01:20:00,34.2,25.4,29.99,SSW,198,3.0,4.0,70,0.00,,,0.00,0,Wunderground v.1.15,2013-11-15 07:20:00,
2013-11-15 01:25:00,34.1,25.3,29.99,SSW,198,3.0,4.0,70,0.00,,,0.00,0,Wunderground v.1.15,2013-11-15 07:25:00,
2013-11-15 01:35:00,33.8,25.4,29.99,SSW,198,3.0,4.0,71,0.00,,,0.00,0,Wunderground v.1.15,2013-11-15 07:35:00,
2013-11-15 01:40:00,33.6,25.2,29.99,SSW,198,3.0,3.0,71,0.00,,,0.00,0,Wunderground v.1.15,2013-11-15 07:40:00,
2013-11-15 01:45:00,33.4,25.3,29.99,SSW,198,3.0,3.0,72,0.00,,,0.00,0,Wunderground v.1.15,2013-11-15 07:45:00,
2013-11-15 01:50:00,33.2,25.1,30.00,SSW,198,3.0,3.0,72,0.00,,,0.00,0,Wunderground v.1.15,2013-11-15 07:50:00,
2013-11-15 01:55:00,33.3,25.6,30.00,SSW,198,3.0,3.0,73,0.00,,,0.00,0,Wunderground v.1.15,2013-11-15 07:55:00,
2013-11-15 02:00:00,33.3,25.6,30.00,SSW,198,3.0,3.0,73,0.00,,,0.00,0,Wunderground v.1.15,2013-11-15 08:00:00,
2013-11-15 02:05:00,33.4,26.0,30.00,SSW,198,3.0,3.0,74,0.00,,,0.00,0,Wunderground v.1.15,2013-11-15 08:05:00,
2013-11-15 02:10:00,33.5,26.1,30.00,SSW,198,2.0,3.0,74,0.00,,,0.00,0,Wunderground v.1.15,2013-11-15 08:10:00,
2013-11-15 02:15:00,33.7,26.0,30.00,SSW,198,2.0,3.0,73,0.00,,,0.00,0,Wunderground v.1.15,2013-11-15 08:15:00,
2013-11-15 02:20:00,34.1,26.3,30.00,SSW,198,3.0,3.0,73,0.00,,,0.00,0,Wunderground v.1.15,2013-11-15 08:20:00,
2013-11-15 02:25:00,34.3,26.2,30.00,SSW,198,3.0,3.0,72,0.00,,,0.00,0,Wunderground v.1.15,2013-11-15 08:25:00,
2013-11-15 02:30:00,34.6,26.5,30.00,SSW,198,3.0,3.0,72,0.00,,,0.00,0,Wunderground v.1.15,2013-11-15 08:30:00,
2013-11-15 02:40:00,35.0,26.5,29.99,SSW,198,4.0,4.0,71,0.00,,,0.00,0,Wunderground v.1.15,2013-11-15 08:40:00,
2013-11-15 02:45:00,35.1,26.3,29.99,SSW,198,4.0,4.0,70,0.00,,,0.00,0,Wunderground v.1.15,2013-11-15 08:45:00,
2013-11-15 02:50:00,35.2,26.4,29.99,SSW,198,4.0,4.0,70,0.00,,,0.00,0,Wunderground v.1.15,2013-11-15 08:50:00,
2013-11-15 02:55:00,35.3,26.5,29.99,SSW,198,4.0,4.0,70,0.00,,,0.00,0,Wunderground v.1.15,2013-11-15 08:55:00,
2013-11-15 03:00:00,35.5,26.7,29.99,SSW,198,3.0,3.0,70,0.00,,,0.00,0,Wunderground v.1.15,2013-11-15 09:00:00,
2013-11-15 03:05:00,35.6,26.8,29.98,SSW,198,3.0,4.0,70,0.00,,,0.00,0,Wunderground v.1.15,2013-11-15 09:05:00,
2013-11-15 03:15:00,35.8,26.6,29.98,SSW,198,3.0,4.0,69,0.00,,,0.00,0,Wunderground v.1.15,2013-11-15 09:15:00,
2013-11-15 03:20:00,35.9,26.7,29.98,SSW,198,2.0,2.0,69,0.00,,,0.00,0,Wunderground v.1.15,2013-11-15 09:20:00,
2013-11-15 03:25:00,35.9,26.7,29.98,SSW,198,2.0,2.0,69,0.00,,,0.00,0,Wunderground v.1.15,2013-11-15 09:25:00,
2013-11-15 03:30:00,36.0,27.2,29.98,SSW,198,3.0,4.0,70,0.00,,,0.00,0,Wunderground v.1.15,2013-11-15 09:30:00,
2013-11-15 03:35:00,36.0,27.2,29.98,SSW,198,4.0,4.0,70,0.00,,,0.00,0,Wunderground v.1.15,2013-11-15 09:35:00,
2013-11-15 03:45:00,35.9,27.4,29.98,SSW,198,4.0,5.0,71,0.00,,,0.00,0,Wunderground v.1.15,2013-11-15 09:45:00,
2013-11-15 03:50:00,35.9,27.4,29.98,SSW,198,4.0,5.0,71,0.00,,,0.00,0,Wunderground v.1.15,2013-11-15 09:50:00,
2013-11-15 03:55:00,35.9,27.4,29.98,SSW,198,4.0,5.0,71,0.00,,,0.00,0,Wunderground v.1.15,2013-11-15 09:55:00,
2013-11-15 04:00:00,35.8,27.3,29.98,SSW,198,4.0,5.0,71,0.00,,,0.00,0,Wunderground v.1.15,2013-11-15 10:00:00,
2013-11-15 04:05:00,35.8,27.7,29.98,SSW,198,4.0,5.0,72,0.00,,,0.00,0,Wunderground v.1.15,2013-11-15 10:05:00,
2013-11-15 04:10:00,35.8,27.7,29.98,SSW,198,5.0,5.0,72,0.00,,,0.00,0,Wunderground v.1.15,2013-11-15 10:10:00,
2013-11-15 04:20:00,36.0,27.8,29.98,SSW,197,5.0,5.0,72,0.00,,,0.00,0,Wunderground v.1.15,2013-11-15 10:20:00,
2013-11-15 04:25:00,36.0,27.8,29.98,SSW,197,5.0,5.0,72,0.00,,,0.00,0,Wunderground v.1.15,2013-11-15 10:25:00,
2013-11-15 04:30:00,36.1,27.9,29.98,SSW,197,5.0,6.0,72,0.00,,,0.00,0,Wunderground v.1.15,2013-11-15 10:30:00,
2013-11-15 04:35:00,36.1,28.3,29.98,SSW,197,6.0,7.0,73,0.00,,,0.00,0,Wunderground v.1.15,2013-11-15 10:35:00,
2013-11-15 04:40:00,36.2,28.0,29.98,SSW,197,6.0,6.0,72,0.00,,,0.00,0,Wunderground v.1.15,2013-11-15 10:40:00,
2013-11-15 04:50:00,36.4,28.2,29.98,SSW,197,6.0,6.0,72,0.00,,,0.00,0,Wunderground v.1.15,2013-11-15 10:50:00,
2013-11-15 04:55:00,36.4,28.2,29.98,SSW,197,6.0,6.0,72,0.00,,,0.00,0,Wunderground v.1.15,2013-11-15 10:55:00,
2013-11-15 05:00:00,36.4,28.2,29.98,SSW,197,6.0,6.0,72,0.00,,,0.00,0,Wunderground v.1.15,2013-11-15 11:00:00,
2013-11-15 05:10:00,36.3,28.5,29.98,SSW,197,6.0,7.0,73,0.00,,,0.00,0,Wunderground v.1.15,2013-11-15 11:10:00,
2013-11-15 05:15:00,36.3,28.5,29.98,SSW,197,6.0,7.0,73,0.00,,,0.00,0,Wunderground v.1.15,2013-11-15 11:15:00,
2013-11-15 05:20:00,36.2,28.4,29.98,SSW,197,6.0,6.0,73,0.00,,,0.00,0,Wunderground v.1.15,2013-11-15 11:20:00,
2013-11-15 05:25:00,36.3,28.1,29.98,SSW,197,6.0,6.0,72,0.00,,,0.00,0,Wunderground v.1.15,2013-11-15 11:25:00,
2013-11-15 05:30:00,36.4,28.6,29.98,SSW,197,5.0,6.0,73,0.00,,,0.00,0,Wunderground v.1.15,2013-11-15 11:30:00,
2013-11-15 05:35:00,36.6,28.8,29.99,SSW,197,5.0,6.0,73,0.00,,,0.00,0,Wunderground v.1.15,2013-11-15 11:35:00,
2013-11-15 05:40:00,36.9,28.7,29.99,SSW,197,6.0,10.0,72,0.00,,,0.00,0,Wunderground v.1.15,2013-11-15 11:40:00,
2013-11-15 05:45:00,37.3,28.8,29.99,SSW,198,8.0,10.0,71,0.00,,,0.00,0,Wunderground v.1.15,2013-11-15 11:45:00,
2013-11-15 05:55:00,37.9,29.0,29.99,SSW,198,7.0,8.0,70,0.00,,,0.00,0,Wunderground v.1.15,2013-11-15 11:55:00,
2013-11-15 06:00:00,38.0,29.1,29.99,SSW,198,7.0,7.0,70,0.00,,,0.00,0,Wunderground v.1.15,2013-11-15 12:00:00,
2013-11-15 06:10:00,38.0,29.4,29.99,SSW,198,5.0,5.0,71,0.00,,,0.00,0,Wunderground v.1.15,2013-11-15 12:10:00,
2013-11-15 06:15:00,37.8,29.6,29.99,SSW,198,5.0,5.0,72,0.00,,,0.00,0,Wunderground v.1.15,2013-11-15 12:15:00,
2013-11-15 06:20:00,37.6,29.4,29.99,SSW,198,5.0,5.0,72,0.00,,,0.00,0,Wunderground v.1.15,2013-11-15 12:20:00,
2013-11-15 06:25:00,37.4,29.5,29.99,SSW,198,5.0,5.0,73,0.00,,,0.00,0,Wunderground v.1.15,2013-11-15 12:25:00,
2013-11-15 06:30:00,37.3,29.4,29.99,SSW,198,5.0,5.0,73,0.00,,,0.00,0,Wunderground v.1.15,2013-11-15 12:30:00,
2013-11-15 06:35:00,37.2,29.7,29.99,SSW,198,5.0,5.0,74,0.00,,,0.00,0,Wunderground v.1.15,2013-11-15 12:35:00,
2013-11-15 06:40:00,37.2,29.7,29.99,SSW,198,5.0,5.0,74,0.00,,,0.00,0,Wunderground v.1.15,2013-11-15 12:40:00,
2013-11-15 06:45:00,37.1,29.6,29.99,SSW,198,5.0,6.0,74,0.00,,,0.00,0,Wunderground v.1.15,2013-11-15 12:45:00,
2013-11-15 06:50:00,37.2,30.0,29.99,SSW,198,5.0,5.0,75,0.00,,,0.00,0,Wunderground v.1.15,2013-11-15 12:50:00,
2013-11-15 07:00:00,37.3,30.1,30.00,SSW,198,4.0,5.0,75,0.00,,,0.00,5,Wunderground v.1.15,2013-11-15 13:00:00,
2013-11-15 07:10:00,37.7,30.2,30.00,SSW,198,5.0,6.0,74,0.00,,,0.00,12,Wunderground v.1.15,2013-11-15 13:10:00,
2013-11-15 07:15:00,38.0,30.1,30.00,SSW,198,6.0,7.0,73,0.00,,,0.00,14,Wunderground v.1.15,2013-11-15 13:15:00,
2013-11-15 07:20:00,38.4,30.2,30.00,SSW,198,6.0,6.0,72,0.00,,,0.00,16,Wunderground v.1.15,2013-11-15 13:20:00,
2013-11-15 07:25:00,38.8,30.5,30.00,SSW,198,7.0,7.0,72,0.00,,,0.00,18,Wunderground v.1.15,2013-11-15 13:25:00,
2013-11-15 07:30:00,39.1,30.5,30.00,SSW,198,7.0,7.0,71,0.00,,,0.00,18,Wunderground v.1.15,2013-11-15 13:30:00,
2013-11-15 07:35:00,39.4,30.8,30.00,SSW,198,6.0,7.0,71,0.00,,,0.00,23,Wunderground v.1.15,2013-11-15 13:35:00,
2013-11-15 07:40:00,39.6,30.6,30.01,SSW,196,6.0,8.0,70,0.00,,,0.00,25,Wunderground v.1.15,2013-11-15 13:40:00,
2013-11-15 07:45:00,39.8,30.8,30.00,SSW,196,7.0,8.0,70,0.00,,,0.00,25,Wunderground v.1.15,2013-11-15 13:45:00,
2013-11-15 07:50:00,40.0,30.6,30.01,SSW,196,7.0,7.0,69,0.00,,,0.00,25,Wunderground v.1.15,2013-11-15 13:50:00,
2013-11-15 07:55:00,40.3,30.9,30.01,SSW,196,8.0,8.0,69,0.00,,,0.00,23,Wunderground v.1.15,2013-11-15 13:55:00,
2013-11-15 08:05:00,40.6,30.9,30.01,SSW,198,8.0,9.0,68,0.00,,,0.00,28,Wunderground v.1.15,2013-11-15 14:05:00,
2013-11-15 08:10:00,40.8,31.1,30.02,SSW,198,8.0,9.0,68,0.00,,,0.00,33,Wunderground v.1.15,2013-11-15 14:10:00,
2013-11-15 08:15:00,40.9,31.1,30.02,SSW,198,8.0,9.0,68,0.00,,,0.00,30,Wunderground v.1.15,2013-11-15 14:15:00,
2013-11-15 08:20:00,41.1,31.3,30.02,SSW,198,7.0,7.0,68,0.00,,,0.00,33,Wunderground v.1.15,2013-11-15 14:20:00,
2013-11-15 08:25:00,41.2,31.4,30.02,SSW,198,7.0,10.0,68,0.00,,,0.00,40,Wunderground v.1.15,2013-11-15 14:25:00,
2013-11-15 08:30:00,41.4,31.6,30.02,SSW,198,7.0,7.0,68,0.00,,,0.00,32,Wunderground v.1.15,2013-11-15 14:30:00,
2013-11-15 08:35:00,41.5,31.7,30.01,SSW,198,8.0,8.0,68,0.00,,,0.00,30,Wunderground v.1.15,2013-11-15 14:35:00,
2013-11-15 08:40:00,41.6,32.2,30.01,SSW,196,7.0,8.0,69,0.00,,,0.00,28,Wunderground v.1.15,2013-11-15 14:40:00,
2013-11-15 08:45:00,41.7,31.9,30.01,SSW,195,7.0,10.0,68,0.00,,,0.00,30,Wunderground v.1.15,2013-11-15 14:45:00,
2013-11-15 08:50:00,41.8,32.4,30.01,SSW,195,7.0,8.0,69,0.00,,,0.00,39,Wunderground v.1.15,2013-11-15 14:50:00,
2013-11-15 09:00:00,42.1,31.9,30.01,SSW,196,7.0,7.0,67,0.00,,,0.00,58,Wunderground v.1.15,2013-11-15 15:00:00,
2013-11-15 09:05:00,42.3,32.1,30.01,SSW,196,8.0,8.0,67,0.00,,,0.00,63,Wunderground v.1.15,2013-11-15 15:05:00,
2013-11-15 09:15:00,42.7,32.5,30.01,SSW,192,7.0,10.0,67,0.00,,,0.00,70,Wunderground v.1.15,2013-11-15 15:15:00,
2013-11-15 09:20:00,42.9,32.7,30.01,SSW,193,7.0,7.0,67,0.00,,,0.00,77,Wunderground v.1.15,2013-11-15 15:20:00,
2013-11-15 09:25:00,43.1,32.9,30.01,SSW,194,7.0,7.0,67,0.00,,,0.00,91,Wunderground v.1.15,2013-11-15 15:25:00,
2013-11-15 09:30:00,43.4,33.2,30.01,SSW,194,7.0,7.0,67,0.00,,,0.00,127,Wunderground v.1.15,2013-11-15 15:30:00,
2013-11-15 09:35:00,43.6,32.6,30.01,SSW,198,8.0,8.0,65,0.00,,,0.00,151,Wunderground v.1.15,2013-11-15 15:35:00,
2013-11-15 09:45:00,44.5,33.5,30.01,SSW,202,9.0,11.0,65,0.00,,,0.00,146,Wunderground v.1.15,2013-11-15 15:45:00,
2013-11-15 09:50:00,44.7,33.6,30.01,SSW,208,10.0,12.0,65,0.00,,,0.00,156,Wunderground v.1.15,2013-11-15 15:50:00,
2013-11-15 09:55:00,45.1,34.0,30.01,SSW,210,11.0,12.0,65,0.00,,,0.00,186,Wunderground v.1.15,2013-11-15 15:55:00,
2013-11-15 10:00:00,45.6,34.1,30.01,SSW,213,11.0,14.0,64,0.00,,,0.00,186,Wunderground v.1.15,2013-11-15 16:00:00,
2013-11-15 10:05:00,46.0,34.5,30.01,SW,215,11.0,14.0,64,0.00,,,0.00,155,Wunderground v.1.15,2013-11-15 16:05:00,
2013-11-15 10:10:00,46.3,34.8,30.01,SSW,202,12.0,12.0,64,0.00,,,0.00,120,Wunderground v.1.15,2013-11-15 16:10:00,
2013-11-15 10:20:00,46.6,35.1,30.01,SSW,211,11.0,12.0,64,0.00,,,0.00,105,Wunderground v.1.15,2013-11-15 16:20:00,
2013-11-15 10:25:00,46.6,35.1,30.01,SSW,209,11.0,13.0,64,0.00,,,0.00,107,Wunderground v.1.15,2013-11-15 16:25:00,
2013-11-15 10:30:00,46.6,34.7,30.01,SSW,202,12.0,13.0,63,0.00,,,0.00,93,Wunderground v.1.15,2013-11-15 16:30:00,
2013-11-15 10:35:00,46.6,35.1,30.02,SSW,202,13.0,15.0,64,0.00,,,0.00,102,Wunderground v.1.15,2013-11-15 16:35:00,
2013-11-15 10:40:00,46.6,35.1,30.02,SSW,205,14.0,14.0,64,0.00,,,0.00,102,Wunderground v.1.15,2013-11-15 16:40:00,
2013-11-15 10:50:00,46.8,35.6,30.01,SW,219,12.0,12.0,65,0.00,,,0.00,121,Wunderground v.1.15,2013-11-15 16:50:00,
2013-11-15 10:55:00,46.8,36.0,30.01,SSW,213,12.0,12.0,66,0.00,,,0.00,132,Wunderground v.1.15,2013-11-15 16:55:00,
2013-11-15 11:00:00,47.0,36.2,30.02,SSW,210,12.0,12.0,66,0.00,,,0.00,125,Wunderground v.1.15,2013-11-15 17:00:00,
2013-11-15 11:05:00,47.0,36.2,30.01,SSW,210,12.0,12.0,66,0.00,,,0.00,111,Wunderground v.1.15,2013-11-15 17:05:00,
2013-11-15 11:10:00,47.0,36.2,30.01,SSW,208,13.0,13.0,66,0.00,,,0.00,114,Wunderground v.1.15,2013-11-15 17:10:00,
2013-11-15 11:15:00,47.0,36.2,30.01,SSW,208,12.0,13.0,66,0.00,,,0.00,97,Wunderground v.1.15,2013-11-15 17:15:00,
2013-11-15 11:25:00,47.1,36.7,30.00,SSW,207,11.0,11.0,67,0.00,,,0.00,93,Wunderground v.1.15,2013-11-15 17:25:00,
2013-11-15 11:30:00,47.1,36.7,30.00,SSW,194,10.0,10.0,67,0.00,,,0.00,83,Wunderground v.1.15,2013-11-15 17:30:00,
2013-11-15 11:35:00,47.0,37.0,30.00,SSW,197,9.0,11.0,68,0.00,,,0.00,67,Wunderground v.1.15,2013-11-15 17:35:00,
2013-11-15 11:40:00,47.0,37.0,30.00,SSW,194,8.0,11.0,68,0.00,,,0.00,74,Wunderground v.1.15,2013-11-15 17:40:00,
2013-11-15 11:45:00,47.0,37.4,29.99,SSW,198,9.0,11.0,69,0.00,,,0.00,65,Wunderground v.1.15,2013-11-15 17:45:00,
2013-11-15 11:55:00,47.1,37.4,29.99,SSW,194,9.0,13.0,69,0.00,,,0.00,81,Wunderground v.1.15,2013-11-15 17:55:00,
2013-11-15 12:00:00,47.2,37.9,29.99,SSW,199,9.0,11.0,70,0.00,,,0.00,90,Wunderground v.1.15,2013-11-15 18:00:00,
2013-11-15 12:05:00,47.4,37.7,29.99,SSW,207,9.0,13.0,69,0.00,,,0.00,102,Wunderground v.1.15,2013-11-15 18:05:00,
2013-11-15 12:10:00,47.6,38.3,29.99,SSW,203,10.0,10.0,70,0.00,,,0.00,114,Wunderground v.1.15,2013-11-15 18:10:00,
2013-11-15 12:15:00,47.8,38.5,29.99,SSW,202,10.0,10.0,70,0.00,,,0.00,128,Wunderground v.1.15,2013-11-15 18:15:00,
2013-11-15 12:20:00,48.0,38.7,29.98,SSW,194,9.0,9.0,70,0.00,,,0.00,123,Wunderground v.1.15,2013-11-15 18:20:00,
2013-11-15 12:30:00,48.3,38.6,29.98,South,190,9.0,9.0,69,0.00,,,0.00,135,Wunderground v.1.15,2013-11-15 18:30:00,
2013-11-15 12:35:00,48.4,38.3,29.98,SSW,193,9.0,9.0,68,0.00,,,0.00,116,Wunderground v.1.15,2013-11-15 18:35:00,
2013-11-15 12:40:00,48.5,38.0,29.97,South,188,8.0,8.0,67,0.00,,,0.00,98,Wunderground v.1.15,2013-11-15 18:40:00,
2013-11-15 12:45:00,48.6,38.1,29.98,South,191,8.0,8.0,67,0.00,,,0.00,104,Wunderground v.1.15,2013-11-15 18:45:00,
2013-11-15 12:50:00,48.6,38.1,29.98,SSW,196,8.0,13.0,67,0.00,,,0.00,100,Wunderground v.1.15,2013-11-15 18:50:00,
2013-11-15 13:00:00,48.6,38.1,29.98,SSW,198,10.0,10.0,67,0.00,,,0.00,97,Wunderground v.1.15,2013-11-15 19:00:00,
2013-11-15 13:05:00,48.5,38.0,29.97,SSW,195,10.0,12.0,67,0.00,,,0.00,98,Wunderground v.1.15,2013-11-15 19:05:00,
2013-11-15 13:10:00,48.5,38.0,29.97,SSW,192,10.0,10.0,67,0.00,,,0.00,113,Wunderground v.1.15,2013-11-15 19:10:00,
2013-11-15 13:15:00,48.5,38.4,29.97,South,189,10.0,10.0,68,0.00,,,0.00,125,Wunderground v.1.15,2013-11-15 19:15:00,
2013-11-15 13:20:00,48.5,38.8,29.97,South,190,10.0,13.0,69,0.00,,,0.00,123,Wunderground v.1.15,2013-11-15 19:20:00,
2013-11-15 13:25:00,48.6,38.5,29.97,South,190,9.0,13.0,68,0.00,,,0.00,132,Wunderground v.1.15,2013-11-15 19:25:00,
2013-11-15 13:35:00,48.7,38.6,29.96,SSW,194,10.0,12.0,68,0.00,,,0.00,153,Wunderground v.1.15,2013-11-15 19:35:00,
2013-11-15 13:40:00,48.8,39.1,29.97,South,178,9.0,9.0,69,0.00,,,0.00,120,Wunderground v.1.15,2013-11-15 19:40:00,
2013-11-15 13:45:00,48.8,39.1,29.96,South,184,7.0,10.0,69,0.00,,,0.00,100,Wunderground v.1.15,2013-11-15 19:45:00,
2013-11-15 13:50:00,48.7,39.0,29.96,South,180,8.0,8.0,69,0.00,,,0.00,98,Wunderground v.1.15,2013-11-15 19:50:00,
2013-11-15 13:55:00,48.6,38.9,29.96,South,186,8.0,9.0,69,0.00,,,0.00,90,Wunderground v.1.15,2013-11-15 19:55:00,
2013-11-15 14:05:00,48.6,39.3,29.95,South,174,7.0,8.0,70,0.00,,,0.00,125,Wunderground v.1.15,2013-11-15 20:05:00,
2013-11-15 14:10:00,48.7,39.4,29.95,South,176,6.0,9.0,70,0.00,,,0.00,142,Wunderground v.1.15,2013-11-15 20:10:00,
2013-11-15 14:15:00,49.0,39.3,29.94,South,171,6.0,9.0,69,0.00,,,0.00,193,Wunderground v.1.15,2013-11-15 20:15:00,
2013-11-15 14:20:00,49.2,39.5,29.94,South,175,7.0,7.0,69,0.00,,,0.00,260,Wunderground v.1.15,2013-11-15 20:20:00,
2013-11-15 14:25:00,49.6,39.5,29.94,SSE,158,7.0,9.0,68,0.00,,,0.00,461,Wunderground v.1.15,2013-11-15 20:25:00,
2013-11-15 14:30:00,50.1,39.2,29.94,SSE,163,7.0,9.0,66,0.00,,,0.00,366,Wunderground v.1.15,2013-11-15 20:30:00,
2013-11-15 14:40:00,50.7,39.4,29.93,South,182,8.0,9.0,65,0.00,,,0.00,111,Wunderground v.1.15,2013-11-15 20:40:00,
2013-11-15 14:45:00,50.6,38.9,29.94,South,179,7.0,9.0,64,0.00,,,0.00,160,Wunderground v.1.15,2013-11-15 20:45:00,
2013-11-15 14:50:00,50.6,39.3,29.94,South,185,7.0,12.0,65,0.00,,,0.00,371,Wunderground v.1.15,2013-11-15 20:50:00,
2013-11-15 14:55:00,50.9,39.5,29.94,SSE,163,7.0,12.0,65,0.00,,,0.00,156,Wunderground v.1.15,2013-11-15 20:55:00,
2013-11-15 15:00:00,50.9,39.1,29.94,SSE,167,6.0,9.0,64,0.00,,,0.00,130,Wunderground v.1.15,2013-11-15 21:00:00,
2013-11-15 15:05:00,51.0,39.6,29.94,South,174,6.0,9.0,65,0.00,,,0.00,330,Wunderground v.1.15,2013-11-15 21:05:00,
2013-11-15 15:10:00,51.4,39.6,29.94,South,174,6.0,10.0,64,0.00,,,0.00,257,Wunderground v.1.15,2013-11-15 21:10:00,
2013-11-15 15:15:00,51.6,39.4,29.94,SSE,162,6.0,10.0,63,0.00,,,0.00,199,Wunderground v.1.15,2013-11-15 21:15:00,
2013-11-15 15:20:00,51.6,39.0,29.94,South,175,6.0,6.0,62,0.00,,,0.00,69,Wunderground v.1.15,2013-11-15 21:20:00,
2013-11-15 15:25:00,51.4,39.2,29.94,South,172,5.0,6.0,63,0.00,,,0.00,67,Wunderground v.1.15,2013-11-15 21:25:00,
2013-11-15 15:30:00,51.0,39.2,29.94,SE,142,5.0,10.0,64,0.00,,,0.00,72,Wunderground v.1.15,2013-11-15 21:30:00,
2013-11-15 15:35:00,50.5,39.2,29.94,SE,139,6.0,10.0,65,0.00,,,0.00,107,Wunderground v.1.15,2013-11-15 21:35:00,
2013-11-15 15:45:00,50.2,39.7,29.94,SE,144,6.0,7.0,67,0.00,,,0.00,127,Wunderground v.1.15,2013-11-15 21:45:00,
2013-11-15 15:50:00,50.4,39.5,29.94,SE,145,6.0,7.0,66,0.00,,,0.00,98,Wunderground v.1.15,2013-11-15 21:50:00,
2013-11-15 15:55:00,50.6,38.9,29.94,SE,146,6.0,7.0,64,0.00,,,0.00,79,Wunderground v.1.15,2013-11-15 21:55:00,
2013-11-15 16:00:00,50.6,38.9,29.94,SE,146,5.0,6.0,64,0.00,,,0.00,63,Wunderground v.1.15,2013-11-15 22:00:00,
2013-11-15 16:05:00,50.4,38.7,29.94,SE,146,5.0,6.0,64,0.00,,,0.00,35,Wunderground v.1.15,2013-11-15 22:05:00,
2013-11-15 16:15:00,49.6,38.3,29.93,SE,146,5.0,6.0,65,0.00,,,0.00,23,Wunderground v.1.15,2013-11-15 22:15:00,
2013-11-15 16:20:00,49.1,37.8,29.94,SE,146,4.0,4.0,65,0.00,,,0.00,19,Wunderground v.1.15,2013-11-15 22:20:00,
2013-11-15 16:25:00,48.6,37.7,29.94,SE,146,3.0,4.0,66,0.00,,,0.00,16,Wunderground v.1.15,2013-11-15 22:25:00,
2013-11-15 16:30:00,48.2,37.8,29.94,SE,146,2.0,2.0,67,0.00,,,0.00,12,Wunderground v.1.15,2013-11-15 22:30:00,
2013-11-15 16:35:00,47.6,37.6,29.94,SE,146,2.0,2.0,68,0.00,,,0.00,11,Wunderground v.1.15,2013-11-15 22:35:00,
2013-11-15 16:40:00,47.1,37.4,29.94,SE,146,3.0,3.0,69,0.00,,,0.00,7,Wunderground v.1.15,2013-11-15 22:40:00,
2013-11-15 16:50:00,46.4,36.8,29.94,SE,146,3.0,4.0,69,0.00,,,0.00,0,Wunderground v.1.15,2013-11-15 22:50:00,
2013-11-15 16:55:00,45.8,36.6,29.94,SE,146,3.0,4.0,70,0.00,,,0.00,0,Wunderground v.1.15,2013-11-15 22:55:00,
2013-11-15 17:00:00,45.2,36.7,29.94,SE,146,4.0,4.0,72,0.00,,,0.00,0,Wunderground v.1.15,2013-11-15 23:00:00,
2013-11-15 17:05:00,44.9,36.8,29.94,SE,146,5.0,5.0,73,0.00,,,0.00,0,Wunderground v.1.15,2013-11-15 23:05:00,
2013-11-15 17:10:00,44.7,36.6,29.93,SE,146,5.0,5.0,73,0.00,,,0.00,0,Wunderground v.1.15,2013-11-15 23:10:00,
2013-11-15 17:20:00,44.8,36.7,29.93,SE,146,5.0,5.0,73,0.00,,,0.00,0,Wunderground v.1.15,2013-11-15 23:20:00,
2013-11-15 17:25:00,44.9,36.8,29.93,SE,146,4.0,5.0,73,0.00,,,0.00,0,Wunderground v.1.15,2013-11-15 23:25:00,
2013-11-15 17:30:00,44.8,36.7,29.93,SE,146,3.0,3.0,73,0.00,,,0.00,0,Wunderground v.1.15,2013-11-15 23:30:00,
2013-11-15 17:35:00,44.7,36.6,29.93,SE,146,3.0,3.0,73,0.00,,,0.00,0,Wunderground v.1.15,2013-11-15 23:35:00,
2013-11-15 17:40:00,44.3,36.2,29.93,SE,146,2.0,2.0,73,0.00,,,0.00,0,Wunderground v.1.15,2013-11-15 23:40:00,
2013-11-15 17:45:00,43.7,35.6,29.93,SE,146,2.0,2.0,73,0.00,,,0.00,0,Wunderground v.1.15,2013-11-15 23:45:00,
2013-11-15 17:55:00,42.6,35.2,29.93,SE,146,1.0,2.0,75,0.00,,,0.00,0,Wunderground v.1.15,2013-11-15 23:55:00,
2013-11-15 18:00:00,42.1,34.7,29.93,SE,146,0.0,0.0,75,0.00,,,0.00,0,Wunderground v.1.15,2013-11-16 00:00:00,
2013-11-15 18:10:00,41.0,34.3,29.93,SE,146,1.0,1.0,77,0.00,,,0.00,0,Wunderground v.1.15,2013-11-16 00:10:00,
2013-11-15 18:15:00,40.6,34.3,29.93,SE,146,1.0,1.0,78,0.00,,,0.00,0,Wunderground v.1.15,2013-11-16 00:15:00,
2013-11-15 18:20:00,40.2,33.6,29.93,SE,146,1.0,3.0,77,0.00,,,0.00,0,Wunderground v.1.15,2013-11-16 00:20:00,
2013-11-15 18:25:00,39.7,33.1,29.92,SE,146,2.0,3.0,77,0.00,,,0.00,0,Wunderground v.1.15,2013-11-16 00:25:00,
2013-11-15 18:30:00,39.5,33.2,29.92,SE,146,2.0,2.0,78,0.00,,,0.00,0,Wunderground v.1.15,2013-11-16 00:30:00,
2013-11-15 18:35:00,39.3,33.0,29.92,SE,146,2.0,2.0,78,0.00,,,0.00,0,Wunderground v.1.15,2013-11-16 00:35:00,
2013-11-15 18:40:00,39.4,33.4,29.93,SE,146,2.0,2.0,79,0.00,,,0.00,0,Wunderground v.1.15,2013-11-16 00:40:00,
2013-11-15 18:45:00,39.4,33.4,29.93,SE,146,2.0,4.0,79,0.00,,,0.00,0,Wunderground v.1.15,2013-11-16 00:45:00,
2013-11-15 18:50:00,39.7,33.7,29.93,SE,146,3.0,3.0,79,0.00,,,0.00,0,Wunderground v.1.15,2013-11-16 00:50:00,
2013-11-15 19:00:00,40.5,34.5,29.92,SE,143,4.0,5.0,79,0.00,,,0.00,0,Wunderground v.1.15,2013-11-16 01:00:00,
2013-11-15 19:10:00,41.5,34.8,29.92,ESE,123,6.0,6.0,77,0.00,,,0.00,0,Wunderground v.1.15,2013-11-16 01:10:00,
2013-11-15 19:15:00,41.5,34.5,29.93,ESE,123,5.0,6.0,76,0.00,,,0.00,0,Wunderground v.1.15,2013-11-16 01:15:00,
2013-11-15 19:20:00,41.5,34.8,29.92,ESE,123,5.0,5.0,77,0.00,,,0.00,0,Wunderground v.1.15,2013-11-16 01:20:00,
2013-11-15 19:25:00,41.5,34.8,29.92,ESE,123,5.0,7.0,77,0.00,,,0.00,0,Wunderground v.1.15,2013-11-16 01:25:00,
2013-11-15 19:30:00,41.7,35.0,29.92,SE,124,5.0,5.0,77,0.00,,,0.00,0,Wunderground v.1.15,2013-11-16 01:30:00,
2013-11-15 19:35:00,41.8,34.8,29.92,SE,124,6.0,6.0,76,0.00,,,0.00,0,Wunderground v.1.15,2013-11-16 01:35:00,
2013-11-15 19:40:00,42.0,35.0,29.92,SE,125,6.0,6.0,76,0.00,,,0.00,0,Wunderground v.1.15,2013-11-16 01:40:00,
2013-11-15 19:45:00,42.2,35.2,29.92,SE,126,6.0,6.0,76,0.00,,,0.00,0,Wunderground v.1.15,2013-11-16 01:45:00,
2013-11-15 19:50:00,42.1,35.1,29.92,SE,126,6.0,6.0,76,0.00,,,0.00,0,Wunderground v.1.15,2013-11-16 01:50:00,
2013-11-15 19:55:00,42.0,35.0,29.92,SE,125,5.0,6.0,76,0.00,,,0.00,0,Wunderground v.1.15,2013-11-16 01:55:00,
2013-11-15 20:05:00,42.2,35.2,29.91,SE,134,8.0,8.0,76,0.00,,,0.00,0,Wunderground v.1.15,2013-11-16 02:05:00,
2013-11-15 20:10:00,42.5,35.8,29.91,SE,134,8.0,8.0,77,0.00,,,0.00,0,Wunderground v.1.15,2013-11-16 02:10:00,
2013-11-15 20:15:00,42.6,35.6,29.91,SE,134,8.0,8.0,76,0.00,,,0.00,0,Wunderground v.1.15,2013-11-16 02:15:00,
2013-11-15 20:20:00,42.6,35.6,29.91,SE,134,6.0,6.0,76,0.00,,,0.00,0,Wunderground v.1.15,2013-11-16 02:20:00,
2013-11-15 20:25:00,42.4,35.4,29.92,SE,134,6.0,6.0,76,0.00,,,0.00,0,Wunderground v.1.15,2013-11-16 02:25:00,
2013-11-15 20:30:00,42.0,35.3,29.91,SE,134,5.0,6.0,77,0.00,,,0.00,0,Wunderground v.1.15,2013-11-16 02:30:00,
2013-11-15 20:35:00,41.8,35.4,29.91,SE,135,6.0,7.0,78,0.00,,,0.00,0,Wunderground v.1.15,2013-11-16 02:35:00,
2013-11-15 20:40:00,41.6,35.2,29.91,SE,136,7.0,8.0,78,0.00,,,0.00,0,Wunderground v.1.15,2013-11-16 02:40:00,
2013-11-15 20:45:00,41.6,35.6,29.91,SE,136,7.0,9.0,79,0.00,,,0.00,0,Wunderground v.1.15,2013-11-16 02:45:00,
2013-11-15 20:50:00,41.6,35.6,29.91,SE,137,7.0,7.0,79,0.00,,,0.00,0,Wunderground v.1.15,2013-11-16 02:50:00,
2013-11-15 20:55:00,41.7,35.7,29.91,SE,139,7.0,7.0,79,0.00,,,0.00,0,Wunderground v.1.15,2013-11-16 02:55:00,
2013-11-15 21:00:00,41.8,35.8,29.91,SE,140,7.0,7.0,79,0.00,,,0.00,0,Wunderground v.1.15,2013-11-16 03:00:00,
2013-11-15 21:10:00,41.8,35.8,29.90,SE,139,7.0,7.0,79,0.00,,,0.00,0,Wunderground v.1.15,2013-11-16 03:10:00,
2013-11-15 21:15:00,42.0,36.0,29.90,SE,140,7.0,7.0,79,0.00,,,0.00,0,Wunderground v.1.15,2013-11-16 03:15:00,
2013-11-15 21:20:00,41.9,35.9,29.91,SE,140,6.0,6.0,79,0.00,,,0.00,0,Wunderground v.1.15,2013-11-16 03:20:00,
2013-11-15 21:25:00,41.8,36.1,29.91,SE,145,5.0,6.0,80,0.00,,,0.00,0,Wunderground v.1.15,2013-11-16 03:25:00,
2013-11-15 21:30:00,41.8,36.1,29.91,SSE,157,5.0,5.0,80,0.00,,,0.00,0,Wunderground v.1.15,2013-11-16 03:30:00,
2013-11-15 21:35:00,42.0,36.3,29.91,SSE,163,5.0,5.0,80,0.00,,,0.00,0,Wunderground v.1.15,2013-11-16 03:35:00,
2013-11-15 21:45:00,42.5,36.8,29.92,SSE,164,6.0,6.0,80,0.00,,,0.00,0,Wunderground v.1.15,2013-11-16 03:45:00,
2013-11-15 21:50:00,42.6,36.9,29.91,SSE,155,6.0,6.0,80,0.00,,,0.00,0,Wunderground v.1.15,2013-11-16 03:50:00,
2013-11-15 21:55:00,42.6,36.9,29.91,SSE,157,6.0,6.0,80,0.00,,,0.00,0,Wunderground v.1.15,2013-11-16 03:55:00,
2013-11-15 22:00:00,42.6,37.2,29.91,SSE,163,6.0,6.0,81,0.00,,,0.00,0,Wunderground v.1.15,2013-11-16 04:00:00,
2013-11-15 22:05:00,42.8,37.4,29.91,SSE,159,6.0,6.0,81,0.00,,,0.00,0,Wunderground v.1.15,2013-11-16 04:05:00,
2013-11-15 22:15:00,43.1,37.7,29.91,SSE,153,6.0,6.0,81,0.00,,,0.00,0,Wunderground v.1.15,2013-11-16 04:15:00,
2013-11-15 22:20:00,43.0,37.6,29.91,SSE,161,6.0,8.0,81,0.00,,,0.00,0,Wunderground v.1.15,2013-11-16 04:20:00,
2013-11-15 22:25:00,42.9,37.8,29.91,SSE,158,6.0,8.0,82,0.00,,,0.00,0,Wunderground v.1.15,2013-11-16 04:25:00,
2013-11-15 22:30:00,42.8,37.7,29.91,SSE,159,6.0,7.0,82,0.00,,,0.00,0,Wunderground v.1.15,2013-11-16 04:30:00,
2013-11-15 22:35:00,42.9,37.8,29.91,SSE,161,6.0,7.0,82,0.00,,,0.00,0,Wunderground v.1.15,2013-11-16 04:35:00,
2013-11-15 22:40:00,42.9,37.8,29.91,South,169,6.0,6.0,82,0.00,,,0.00,0,Wunderground v.1.15,2013-11-16 04:40:00,
2013-11-15 22:50:00,43.1,38.3,29.90,SSE,163,6.0,6.0,83,0.00,,,0.00,0,Wunderground v.1.15,2013-11-16 04:50:00,
2013-11-15 22:55:00,43.1,38.3,29.90,SSE,148,6.0,10.0,83,0.00,,,0.00,0,Wunderground v.1.15,2013-11-16 04:55:00,
2013-11-15 23:00:00,43.1,38.3,29.90,SSE,157,6.0,9.0,83,0.00,,,0.00,0,Wunderground v.1.15,2013-11-16 05:00:00,
2013-11-15 23:05:00,42.9,38.4,29.90,SSE,161,6.0,10.0,84,0.00,,,0.00,0,Wunderground v.1.15,2013-11-16 05:05:00,
2013-11-15 23:10:00,43.0,38.5,29.90,SSE,161,7.0,7.0,84,0.00,,,0.00,0,Wunderground v.1.15,2013-11-16 05:10:00,
2013-11-15 23:20:00,43.1,38.9,29.89,SSE,148,7.0,7.0,85,0.00,,,0.00,0,Wunderground v.1.15,2013-11-16 05:20:00,
2013-11-15 23:25:00,43.1,38.9,29.89,SSE,157,8.0,8.0,85,0.00,,,0.00,0,Wunderground v.1.15,2013-11-16 05:25:00,
2013-11-15 23:30:00,43.1,38.9,29.89,SSE,155,8.0,8.0,85,0.00,,,0.00,0,Wunderground v.1.15,2013-11-16 05:30:00,
2013-11-15 23:35:00,43.1,38.9,29.89,SSE,161,8.0,10.0,85,0.00,,,0.00,0,Wunderground v.1.15,2013-11-16 05:35:00,
2013-11-15 23:40:00,43.1,38.9,29.89,SSE,156,8.0,8.0,85,0.00,,,0.00,0,Wunderground v.1.15,2013-11-16 05:40:00,
2013-11-15 23:45:00,43.0,38.8,29.89,SSE,159,7.0,8.0,85,0.00,,,0.00,0,Wunderground v.1.15,2013-11-16 05:45:00,
2013-11-15 23:55:00,43.0,38.8,29.89,SSE,162,7.0,9.0,85,0.00,,,0.00,0,Wunderground v.1.15,2013-11-16 05:55:00,